Location: Houston
(29.7630°N, 95.3630°W)
Time: 05:53:26
(UTC-05:00)

Daily predictions for brighter satellites

Satellite Brightness Start Highest point End
(mag) Time Altitude Azimuth Time Altitude Azimuth Time Altitude Azimuth
Cosmos 2227 Rocket 4.2 00:18:56 10° N 00:21:18 22° NNE 00:21:18 22° NNE
Cosmos 2297 Rocket 4.3 01:13:04 10° NNW 01:15:01 22° NNW 01:15:01 22° NNW
CZ-4C R/B 4.2 01:31:05 10° N 01:37:32 31° NE 01:38:04 31° ENE
CZ-3C R/B 4.3 02:00:15 60° SSE 02:00:15 60° SSE 03:16:17 10° ESE
Cosmos 2263 Rocket 4.4 02:20:56 10° NNE 02:24:54 19° ENE 02:24:59 19° ENE
Cosmos 2360 Rocket 4.3 02:29:01 20° ENE 02:29:01 20° ENE 02:31:08 10° NE
Cosmos 1980 Rocket 4.3 02:30:02 20° NNW 02:30:02 20° NNW 02:32:17 10° N
SL-16 R/B 3.7 03:12:15 28° NNW 03:12:15 28° NNW 03:15:24 10° N
USA 234 4.1 03:04:56 10° NNE 03:10:53 38° NW 03:10:58 38° NW
Cosmos 2074 Rocket 4.4 03:15:33 58° NE 03:15:33 58° NE 03:20:52 10° NNE
Cosmos 2322 Rocket 3.8 03:20:24 26° NNW 03:20:24 26° NNW 03:23:36 10° N
CZ-4C R/B 3.9 03:19:03 10° NW 03:23:10 34° WNW 03:23:10 34° WNW
ADEOS Rocket 3.6 03:24:15 10° N 03:28:47 47° NNW 03:28:47 47° NNW
ATLAS 2AS CENTAUR R/B 2.8 03:31:06 80° SE 03:31:21 81° ESE 03:39:24 10° NNE
ARIANE 5 R/B 3.4 03:27:50 10° NNE 03:31:41 47° NE 03:31:41 47° NE
GOES 2 Rocket 4.4 03:35:37 75° S 03:35:41 75° S 03:45:20 10° E
Resurs 1-4 Rocket 2.7 03:32:32 10° NNE 03:36:32 53° NNE 03:36:32 53° NNE
Cosmos 2237 4.3 03:53:17 67° NNW 03:53:17 67° NNW 03:58:19 10° NNE
Aureole 2 Rocket 4.5 03:57:29 31° ENE 03:57:29 31° ENE 04:00:25 10° NE
BREEZE-M DEB (TANK) 3.2 03:57:13 69° NE 03:57:13 69° NE 04:05:54 10° NE
Cosmos 1271 Rocket 4.3 03:59:30 36° NNE 03:59:30 36° NNE 04:02:01 10° NNE
MOS 1 Rocket 4.0 03:54:29 10° NNE 03:57:37 45° NNE 03:57:37 45° NNE
CZ-2D R/B 2.5 03:56:00 10° N 04:00:39 53° NW 04:00:39 53° NW
Cosmos 1486 Rocket 4.0 03:59:32 10° NNW 04:04:50 77° ENE 04:04:53 77° E
Meteor 2-19 Rocket 4.4 04:07:51 65° S 04:08:49 84° E 04:15:00 10° N
Cosmos 2263 Rocket 3.4 04:03:34 10° NNW 04:06:36 30° NW 04:06:36 30° NW
Cosmos 2360 Rocket 3.4 04:10:47 29° NW 04:10:47 29° NW 04:15:08 10° N
UNKNOWN OBJECT B 3.9 04:06:58 10° NNE 04:09:32 41° NNE 04:09:32 41° NNE
ISS -0.9 04:09:31 10° N 04:11:51 18° NE 04:14:11 10° E
SL-16 R/B 2.5 04:11:56 62° W 04:11:56 62° W 04:18:06 10° NNW
Cosmos 44 Rocket 4.2 04:08:57 10° NNW 04:11:52 38° NNW 04:11:52 38° NNW
Cosmos 2219 Rocket 2.4 04:12:53 57° SSE 04:13:46 65° ESE 04:19:23 10° NNE
Iridium 4 Rocket 4.0 04:15:39 54° WNW 04:15:39 54° WNW 04:20:58 10° N
COSMOS 2428 2.7 04:16:07 65° W 04:16:20 66° WNW 04:22:03 10° NNE
Cosmos 2237 Rocket 3.4 04:16:08 26° SE 04:18:22 35° ESE 04:23:24 10° NE
Cosmos 1544 4.0 04:24:19 44° E 04:24:19 44° E 04:27:43 10° NNE
Cosmos 2228 4.3 04:27:01 29° NW 04:27:01 29° NW 04:29:34 10° NNW
Cosmos 1844 Rocket 3.7 04:23:49 10° N 04:29:16 46° ENE 04:34:40 10° SE
BREEZE-M DEB (TANK) 3.3 04:30:00 63° WNW 04:30:25 68° NW 04:40:06 10° NE
Cosmos 2333 Rocket 2.2 04:33:28 47° S 04:35:11 82° ESE 04:40:53 10° NNE
Cosmos 1295 Rocket 4.4 04:39:37 38° SSW 04:42:15 78° W 04:48:37 10° N
Atlas Centaur 2 2.7 04:45:39 26° SSE 04:45:44 26° SSE 04:49:39 10° E
Meteor 2-5 Rocket 3.9 04:43:43 10° NNW 04:49:12 51° W 04:50:51 39° SW
Cosmos 1766 3.7 04:49:51 45° WNW 04:49:51 45° WNW 04:53:16 10° N
ERBS 2.2 04:50:31 87° NNE 04:50:31 87° NNE 04:53:56 10° NE
Cosmos 972 4.4 04:50:15 47° SW 04:51:26 61° WNW 04:56:15 10° N
Meteor 1-24 Rocket 3.6 04:47:57 10° N 04:53:25 81° W 04:58:01 16° S
Cosmos 2278 Rocket 4.3 04:51:12 10° N 04:56:03 28° ENE 05:00:52 10° ESE
Cosmos 1503 Rocket 4.0 04:51:55 10° NNW 04:57:12 66° WSW 05:01:46 14° S
Cosmos 1959 Rocket 4.5 04:54:58 18° S 04:59:48 86° E 05:06:01 10° N
SL-8 Rocket 3.9 04:57:45 24° SSW 05:01:45 74° W 05:08:05 10° N
Cosmos 1812 Rocket 3.8 05:01:27 42° WSW 05:02:17 48° W 05:06:30 10° N
Nadezhda 3 Rocket 4.4 04:57:08 10° NNW 05:02:59 43° W 05:05:51 27° SW
OAO 3 Rocket 4.1 04:59:40 15° WNW 05:03:21 46° N 05:08:04 10° ENE
SL-16 R/B 3.5 05:00:18 10° SSE 05:05:25 36° ESE 05:10:33 10° NE
Abrixas rocket 2.7 05:07:05 41° WNW 05:07:36 46° NW 05:10:49 10° NE
SL-08 R/B 4.5 05:03:55 14° S 05:09:24 89° E 05:15:43 10° N
USA 161 1.5 05:10:38 57° SW 05:10:51 59° W 05:13:49 10° NNW
ADEOS II 2.0 05:10:02 10° N 05:15:16 71° WNW 05:19:03 19° SSW
Lacrosse 5 2.1 05:12:17 24° SSW 05:15:22 67° SE 05:20:25 10° NE
Okean O Rocket 1.6 05:11:34 10° NNE 05:16:03 84° ESE 05:19:39 16° S
Meteor 2-21 Rocket 4.4 05:11:41 14° S 05:16:56 79° W 05:23:04 10° N
Cosmos 1674 3.7 05:14:08 10° N 05:17:51 46° E 05:21:34 10° SSE
Okean 3 Rocket 4.2 05:14:14 10° N 05:18:37 58° E 05:23:01 10° SSE
Geosat 4.2 05:14:53 10° NNE 05:19:54 69° ESE 05:24:21 13° SSW
NOSS 8 (A) 4.3 05:19:00 34° SW 05:20:18 67° WNW 05:23:32 10° NNE
Cosmos 1844 3.6 05:14:50 10° NNW 05:20:28 80° WSW 05:26:08 10° SSE
NOSS 0 Rocket 4.3 05:17:51 24° SW 05:21:24 49° WNW 05:27:24 10° N
Cosmos 1805 4.1 05:22:30 27° WSW 05:23:31 32° W 05:27:03 10° NNW
Intelsat 5-1 Rocket 3.5 05:20:48 24° WSW 05:23:40 50° S 05:35:34 10° ESE
BREEZE-M DEB (TANK) 3.5 05:15:08 10° NW 05:27:33 56° SW 05:31:10 10° SSE
Cosmos 1076 Rocket 4.2 05:25:02 10° N 05:29:11 56° E 05:33:22 10° SSE
Cosmos 1340 Rocket 4.2 05:26:58 10° NW 05:29:51 20° W 05:30:02 20° W
NOSS 3-4 (A) 3.5 05:25:33 18° SW 05:30:19 73° WNW 05:36:44 10° NNE
NOSS 3-4 (C) 3.5 05:25:36 18° SW 05:30:24 74° WNW 05:36:48 10° NNE
Milstar 3 4.4 05:28:18 16° SW 05:30:42 18° SSW 05:37:34 10° SSE
Cosmos 1727 Rocket 4.0 05:29:23 10° N 05:35:36 86° E 05:41:46 10° S
Cosmos 1607 4.5 05:32:01 10° NW 05:37:52 37° WSW 05:43:41 10° S
Cosmos 1356 Rocket 3.7 05:36:38 10° NNW 05:40:25 41° W 05:44:09 10° SSW
Cosmos 2366 rocket 4.3 05:36:39 11° SSW 05:42:09 44° W 05:48:03 10° N
SEDSat Delta rocket 3.1 05:38:45 12° W 05:42:25 69° N 05:46:48 10° E
Tiangong 1 1.3 05:42:14 20° W 05:43:52 47° NNW 05:46:34 10° NE
SeaSat 1 2.4 05:41:08 10° SSE 05:46:03 84° WSW 05:51:00 10° NNW
Meteor 1-21 Rocket 4.3 05:41:34 10° N 05:47:22 78° W 05:53:14 10° S
ISS -3.0 05:45:28 10° WNW 05:48:20 28° SW 05:51:11 10° S
CZ-4B R/B 4.3 05:44:41 10° NNE 05:49:02 72° E 05:53:10 10° S
Lacrosse 5 rocket 2.9 05:46:00 10° NNW 05:49:55 41° NE 05:54:03 10° ESE
ATLAS 2A CENTAUR R/B 1.2 05:48:24 14° WSW 05:50:30 40° S 05:52:21 10° ESE
Cosmos 1339 Rocket 4.4 05:48:26 10° NNW 05:54:26 65° W 06:00:27 10° S
Cosmos 1953 3.8 05:54:15 12° SW 05:56:52 21° WNW 05:59:56 10° NNW
Cosmos 2219 Rocket 4.1 05:55:19 10° W 05:58:08 14° WNW 06:00:58 10° NNW
ATLAS 3B R/B 2.8 05:52:53 10° NW 05:59:08 47° WSW 06:05:15 10° S
Meteor 1-31 Rocket 2.7 05:57:31 10° N 06:01:22 71° WNW 06:05:12 10° SSW
Okean-O 3.1 05:57:59 10° NNE 06:02:23 64° E 06:06:46 10° S
Cosmos 2237 Rocket 3.5 05:57:59 10° WSW 06:02:23 24° WNW 06:06:52 10° N
SJ-6F 4.5 06:00:22 10° NNE 06:04:28 86° ESE 06:08:35 10° S
Cosmos 1408 Rocket 3.6 06:01:09 10° N 06:05:37 88° W 06:10:01 10° S
Iridium 2 3.7 06:04:18 10° SSW 06:08:03 60° W 06:11:49 10° N
EO 1 Del DPAF 3.4 06:05:19 10° SSE 06:09:09 83° ENE 06:13:00 10° N
Cosmos 1470 4.0 06:08:15 10° SW 06:11:28 24° W 06:14:40 10° NNW
Cosmos 1844 Rocket 4.1 06:09:03 10° WNW 06:12:41 18° W 06:16:18 10° SW
CZ-2C R/B 3.7 06:08:47 10° S 06:13:18 66° WSW 06:17:47 10° NNW
KM-V1 3.3 06:09:58 10° W 06:13:31 74° SSW 06:15:44 10° ESE
CZ-4B R/B 4.1 06:08:49 10° N 06:13:49 34° WNW 06:18:45 10° SW
Palapa 6 Rocket 4.3 06:10:39 10° SW 06:14:08 23° S 06:17:18 10° ESE
RESURS DK-1 2.6 06:11:45 10° SW 06:15:47 53° WNW 06:19:51 10° N
